ZHONGXING-4A

Last updated on Thu Sep 10 2026 00:03:01 GMT+0000 (Coordinated Universal Time)

1 60606U 24151A 26252.60897507 -.00000385 00000+0 00000+0 0 9995 2 60606 1.1024 270.0556 0001124 7.6489 48.4010 1.00269347 7607
UTC large
Height (km)
Speed (km/s)
/
Latitude / Longitude
Inclination (degrees)
Orbital Period (minutes)
Azimuth
Elevation
Range (km)
Doppler Factor

Next 0 passes for location: London (51.5072 / 0.1276)

No passes found over London.
ZHONGXING-4A